Weather History for KFOK - August, 2013

Change the Weather History Date:

Wednesday, August 28, 2013

  Actual Average Record
Temperature  
Mean Temperature 71 °F -  
Max Temperature 84 °F 75 °F 86 °F (2012)
Min Temperature 60 °F 58 °F 48 °F (2008)
Cooling Degree Days 6    
Growing Degree Days 21 (Base 50)    
Moisture  
Dew Point 65 °F    
Average Humidity 90    
Maximum Humidity 100    
Minimum Humidity 60    
Precipitation  
Precipitation 0.00 in - - ()
Sea Level Pressure  
Sea Level Pressure 29.90 in    
Wind  
Wind Speed 1 mph (SE)    
Max Wind Speed 7 mph    
Max Gust Speed -    
Visibility 5 miles    
Events Fog    
Averages and records for this station are not official NWS values.
T = Trace of Precipitation, MM = Missing Value Source: NWS Daily Summary

Daily Weather History Graph

Daily Weather History Graph

Search for Another Location

Airport or City:

Trip Planner

Search our weather history database for the weather conditions in past years. The results will help you decide how hot, cold, wet, or windy it might be!

Date:

Astronomy

Aug. 28, 2013 Rise Set
Actual Time 6:13 AM EDT 7:28 PM EDT
Civil Twilight 5:45 AM EDT 7:57 PM EDT
Nautical Twilight 5:11 AM EDT 8:31 PM EDT
Astronomical Twilight 4:35 AM EDT 9:06 PM EDT
Moon No Moon Rise 2:05 PM EDT (8/28)
Length of Visible Light 14h 12m
Length of Day
13h 15m
Waning Gibbous, 47% of the Moon is Illuminated
Aug 28
Waning Gibbous
Sep 5
New
Sep 12
First Quarter
Sep 19
Full
Sep 26
Last Quarter

Hourly Weather History & Observations

Time (EDT) Temp. Heat Index Dew Point Humidity Pressure Visibility Wind Dir Wind Speed Gust Speed Precip Events Conditions
12:49 AM 64.4 °F - 62.6 °F 94% 29.92 in 5.0 mi Calm Calm - N/A   Partly Cloudy
12:53 AM 64.9 °F - 64.0 °F 97% 29.92 in 7.0 mi Calm Calm - N/A   Partly Cloudy
1:36 AM 64.4 °F - 62.6 °F 94% 29.91 in 1.8 mi Calm Calm - N/A   Scattered Clouds
1:46 AM 64.4 °F - 62.6 °F 94% 29.91 in 4.0 mi Calm Calm - N/A   Scattered Clouds
1:53 AM 64.9 °F - 63.0 °F 93% 29.90 in 8.0 mi Calm Calm - N/A   Partly Cloudy
2:01 AM 64.4 °F - 62.6 °F 94% 29.90 in 4.0 mi Calm Calm - N/A   Scattered Clouds
2:05 AM 64.4 °F - 62.6 °F 94% 29.90 in 1.5 mi Calm Calm - N/A   Scattered Clouds
2:23 AM 62.6 °F - 62.6 °F 100% 29.89 in 0.8 mi Calm Calm - N/A   Scattered Clouds
2:37 AM 64.4 °F - 62.6 °F 94% 29.89 in 0.5 mi Calm Calm - N/A Fog Fog
2:45 AM 62.6 °F - 60.8 °F 94% 29.89 in 1.2 mi Calm Calm - N/A   Scattered Clouds
2:53 AM 63.0 °F - 62.1 °F 97% 29.89 in 3.0 mi Calm Calm - N/A   Scattered Clouds
3:46 AM 62.6 °F - 60.8 °F 94% 29.88 in 2.5 mi Calm Calm - N/A   Partly Cloudy
3:53 AM 62.1 °F - 60.1 °F 93% 29.88 in 5.0 mi Calm Calm - N/A   Partly Cloudy
4:53 AM 63.0 °F - 61.0 °F 93% 29.88 in 8.0 mi Calm Calm - N/A   Clear
5:45 AM 60.8 °F - 60.8 °F 100% 29.89 in 5.0 mi Calm Calm - N/A   Overcast
5:53 AM 62.1 °F - 60.1 °F 93% 29.89 in 8.0 mi Calm Calm - N/A   Mostly Cloudy
6:14 AM 60.8 °F - 59.0 °F 94% 29.89 in 2.0 mi Calm Calm - N/A   Mostly Cloudy
6:16 AM 60.8 °F - 59.0 °F 94% 29.90 in 0.5 mi WNW 5.8 mph - N/A Fog Fog
6:22 AM 60.8 °F - 59.0 °F 94% 29.90 in 0.2 mi NW 4.6 mph - N/A Fog Fog
6:37 AM 60.8 °F - 60.8 °F 100% 29.90 in 1.0 mi Calm Calm - N/A   Mist
6:46 AM 60.8 °F - 60.8 °F 100% 29.90 in 2.0 mi Calm Calm - N/A   Overcast
6:51 AM 60.8 °F - 60.8 °F 100% 29.90 in 0.8 mi Calm Calm - N/A   Mist
6:53 AM 61.0 °F - 60.1 °F 97% 29.90 in 0.2 mi Calm Calm - N/A Fog Fog
7:12 AM 62.6 °F - 62.6 °F 100% 29.90 in 3.0 mi Calm Calm - N/A   Clear
7:53 AM 69.1 °F - 68.0 °F 96% 29.91 in 3.0 mi Calm Calm - N/A   Clear
8:00 AM 69.8 °F - 68.0 °F 94% 29.91 in 5.0 mi Calm Calm - N/A   Partly Cloudy
8:53 AM 75.0 °F - 69.1 °F 82% 29.91 in 10.0 mi Calm Calm - N/A   Clear
9:53 AM 81.0 °F 83.8 °F 68.0 °F 65% 29.91 in 10.0 mi Calm Calm - N/A   Clear
10:53 AM 82.9 °F 85.8 °F 68.0 °F 60% 29.90 in 10.0 mi Calm Calm - N/A   Clear
11:46 AM 82.4 °F 87.2 °F 71.6 °F 70% 29.90 in 10.0 mi South 5.8 mph - N/A   Mostly Cloudy
11:53 AM 82.0 °F 86.3 °F 71.1 °F 69% 29.90 in 10.0 mi Variable 6.9 mph - N/A   Mostly Cloudy
12:53 PM 81.0 °F 84.1 °F 69.1 °F 67% 29.89 in 10.0 mi SE 6.9 mph - N/A   Partly Cloudy
1:53 PM 78.1 °F - 68.0 °F 71% 29.89 in 10.0 mi SE 5.8 mph - N/A   Mostly Cloudy
2:53 PM 80.1 °F 82.9 °F 69.1 °F 69% 29.89 in 10.0 mi South 6.9 mph - N/A   Clear
3:53 PM 77.0 °F - 68.0 °F 74% 29.89 in 10.0 mi SSE 6.9 mph - N/A   Clear
4:53 PM 75.0 °F - 69.1 °F 82% 29.89 in 10.0 mi South 5.8 mph - N/A   Clear
5:53 PM 75.0 °F - 70.0 °F 84% 29.88 in 10.0 mi SSE 4.6 mph - N/A   Scattered Clouds
6:42 PM 73.4 °F - 69.8 °F 88% 29.89 in 8.0 mi ESE 4.6 mph - N/A   Scattered Clouds
6:51 PM 73.4 °F - 69.8 °F 88% 29.90 in 7.0 mi SE 4.6 mph - N/A   Mostly Cloudy
6:53 PM 73.0 °F - 70.0 °F 90% 29.90 in 7.0 mi SE 5.8 mph - N/A   Mostly Cloudy
7:53 PM 72.0 °F - 70.0 °F 93% 29.90 in 6.0 mi Calm Calm - N/A   Overcast
8:09 PM 71.6 °F - 69.8 °F 94% 29.90 in 6.0 mi Calm Calm - N/A   Scattered Clouds
8:53 PM 71.1 °F - 69.1 °F 93% 29.91 in 5.0 mi East 3.5 mph - N/A   Clear
9:53 PM 69.1 °F - 68.0 °F 96% 29.92 in 4.0 mi ENE 3.5 mph - N/A   Clear
10:53 PM 69.1 °F - 68.0 °F 96% 29.91 in 3.0 mi Calm Calm - N/A   Partly Cloudy
11:20 PM 69.8 °F - 68.0 °F 94% 29.91 in 1.8 mi Calm Calm - N/A   Mostly Cloudy
11:29 PM 69.8 °F - 68.0 °F 94% 29.92 in 3.0 mi Calm Calm - N/A   Mostly Cloudy
11:51 PM 71.6 °F - 69.8 °F 94% 29.91 in 1.8 mi East 3.5 mph - N/A   Overcast
11:53 PM 71.1 °F - 69.1 °F 93% 29.91 in 1.2 mi East 3.5 mph - N/A   Overcast